Regional Weather Roundup
Issued by NWS Upton, NY

Current Version | Previous Version | Text Only | Print | Product List | Glossary Off
Versions: 1 2 3 4 5 6 7 8 9 10 11 12 13 14 15 16 17 18 19 20 21 22 23 24 25 26 27
000 ASUS41 KOKX 250308 RWROKX REGIONAL WEATHER ROUNDUP NATIONAL WEATHER SERVICE NEW YORK NY 1100 PM EDT FRI MAR 24 2017 NOTE: "FAIR" INDICATES FEW OR NO CLOUDS BELOW 12,000 FEET WITH NO SIGNIFICANT WEATHER AND/OR OBSTRUCTIONS TO VISIBILITY. NYZ071-072-176-178-NJZ106-104-250400- NEW YORK CITY METRO AREA CITY SKY/WX TMP DP RH WIND PRES REMARKS Central Park CLOUDY 53 32 44 VRB5 30.16F Wall St Helipt PTCLDY 52 33 48 W7 30.15F LaGuardia APRT CLOUDY 55 32 41 SW14 30.13F Kennedy INTL PTCLDY 46 38 73 S7 30.16F Breezy Point N/A 48 N/A N/A SW8 N/A Newark/Liberty MOCLDY 52 33 48 SW10 30.14F Teterboro PTCLDY 51 33 50 S8 30.13F $$ NYZ177-179-078>081-250400- LONG ISLAND NEW YORK CITY SKY/WX TMP DP RH WIND PRES REMARKS Jones Beach N/A 43 N/A N/A SW9 N/A Matinecock PT N/A 52 N/A N/A SW15 N/A Farmingdale CLOUDY 45 38 76 SW7 30.15F MacArthur/ISP MOCLDY 43 39 86 SW7 30.14F Shirley CLOUDY 44 39 82 SW8 30.16F Westhampton MOCLDY 45 37 73 SW12 30.16F East Hampton MOCLDY 44 37 77 SW8 30.14F Montauk N/A 48 38 68 SW10G21 30.13F $$ NYZ052-065-067-250400- HUDSON VALLEY CITY SKY/WX TMP DP RH WIND PRES REMARKS White Plains CLOUDY 50 32 50 VRB5 30.11F Newburgh CLOUDY 45 36 70 SW6 30.11F Montgomery PTCLDY 37 32 82 CALM 30.08F Poughkeepsie PTCLDY 35 30 82 CALM 30.10F Albany CLOUDY 41 34 76 CALM 30.08R $$ NJZ001-105-106-008-010-013-015-019>022-104-250400- NEW JERSEY CITY SKY/WX TMP DP RH WIND PRES REMARKS Newark/Liberty MOCLDY 52 33 48 SW10 30.14F Teterboro PTCLDY 51 33 50 S8 30.13F Caldwell PTCLDY 50 32 50 VRB5 30.12F Somerville CLOUDY 39 33 79 S7 30.12F WCI 34 Linden N/A 51 31 47 CALM 30.14F Sussex PTCLDY 36 32 85 CALM 30.11F Andover N/A 42 33 70 CALM 30.12F Trenton CLEAR 48 32 53 CALM 30.17R Millville PTCLDY 52 40 63 VRB3 30.17S Atlantic City PTCLDY 50 39 66 S6 30.17S Wrightstown CLEAR 44 32 62 CALM 30.15R Toms River CLEAR 41 33 73 CALM 30.19R Belmar CLEAR 50 31 48 CALM 30.19R $$ PAZ047>061-062-071-250400- EASTERN PENNSYLVANIA CITY SKY/WX TMP DP RH WIND PRES REMARKS Philadelphia PTCLDY 51 34 52 NW6 30.18R Allentown PTCLDY 45 34 65 S5 30.14F Scranton CLOUDY 45 38 76 CALM 30.10R $$ CTZ002-004>006-009-010-012-RIZ004-006-007-MAZ004-011-015-250400- SOUTHERN NEW ENGLAND IN CT CITY SKY/WX TMP DP RH WIND PRES REMARKS Bradley INTL CLOUDY 43 31 62 SW9 30.09S Hartford MOCLDY 43 32 65 S3 30.11F Danbury PTCLDY 43 33 68 SW8 30.10F Wtrbury/Oxford MOCLDY 43 30 61 SW3 30.10F Bridgeport CLOUDY 43 35 73 SW8 30.12F Meriden PTCLDY 43 33 68 SE5 30.10F New Haven CLOUDY 42 36 79 SW7 30.12F Chester NOT AVBL Groton CLOUDY 44 36 73 VRB5 30.12F Wilimantic CLOUDY 45 32 60 SW3 30.10F IN RI CITY SKY/WX TMP DP RH WIND PRES REMARKS Providence CLOUDY 47 32 56 W13 30.09F Block Island MOCLDY 43 39 86 SW17G26 30.13 Westerly CLOUDY 44 37 76 SW5 30.13F IN MA CITY SKY/WX TMP DP RH WIND PRES REMARKS Boston CLOUDY 46 31 55 W8G22 30.08R Worcester CLOUDY 42 29 59 W18 30.03S Westfield PTCLDY 42 31 64 SE7 30.07S Provincetown CLOUDY 42 35 76 SW13 30.09S Nantucket CLOUDY 42 39 89 SW16 30.13F $$ ANZ330-335-338-340-345-350-353-355-250400- COASTAL MARINE OBSERVATIONS STATION/POSITION TIME SKY/WX TEMP WIND PRES VSBY WAVE AIR SEA DIR/SP/G HT/PER (UTC) (F) (DEG/KT/KT) (MB) (MI) (FT/S) NY HARB ENTRANCE 0150 44 42 200/ 8/ 10 1022.0 5/ 7 20 S FIRE ISLAND 0150 45 40 230/ 17/ 21 1021.7 7/ 7 GREAT SOUTH BAY NOT AVBL 23 SSW MONTAUK P 0150 46 43 1021.4 8/ 7 15 E BARNEGAT LI 0230 42 N/A 6/ 6 HUDSON CANYON 0150 50 45 220/ 19/ 23 1022.4 7/ 6 KINGS POINT 0242 49 38 1020.4 EXECUTION ROCKS NOT AVBL CENTRAL LI SOUND 0230 41 210/ 8/ 10 N/A 1/ 3 EASTERN LI SOUND NOT AVBL ROBBINS REEF 0248 54 220/ 14/ 19 1020.7 $$ >>>>>>>>>>>>>>>>>>>>>>>>>>>> KEY <<<<<<<<<<<<<<<<<<<<<<<<<<< > < > SKY/WX - Sky Condition/Present Weather < > TMP - Temperature in Fahrenheit < > DP - Dew Point in Fahrenheit < > RH - Relative Humidity in Percent < > WIND - Direction (from) and Speed in MPH < > PRES - Mean Sea Level Pressure (inches of Hg) < > WCI - Wind Chill Index < > VSB - VISIBILITY IN MILES < > HX - HEAT INDEX < > TC - TEMPERATURE IN CELSIUS < > VRB - VARIABLE WIND DIRECTION < > < >>>>>>>>>>>>>>>>>>>>>>>>>>>> KEY <<<<<<<<<<<<<<<<<<<<<<<<<<<

USA.gov is the U.S. government's official web portal to all federal, state and local government web resources and services.